Time,TemperatureF,DewpointF,PressureIn,WindDirection,WindDirectionDegrees,WindSpeedMPH,WindSpeedGustMPH,Humidity,HourlyPrecipIn,Conditions,Clouds,dailyrainin,SolarRadiationWatts/m^2,SoftwareType,DateUTC
2013-05-11 00:03:00,75.0,70.0,30.08,ESE,102,4.0,7.0,85,0.00,,,0.00,0.000000,,2013-05-11 10:03:00,
2013-05-11 00:12:00,75.0,70.0,30.08,ESE,102,4.0,7.0,85,0.00,,,0.00,0.000000,,2013-05-11 10:12:00,
2013-05-11 00:33:00,75.0,71.0,30.06,ESE,109,4.0,6.0,87,0.00,,,0.00,0.000000,,2013-05-11 10:33:00,
2013-05-11 00:42:00,75.0,71.0,30.06,ESE,109,4.0,6.0,87,0.00,,,0.00,0.000000,,2013-05-11 10:42:00,
2013-05-11 00:52:00,75.0,71.0,30.06,ESE,109,4.0,6.0,87,0.00,,,0.00,0.000000,,2013-05-11 10:52:00,
2013-05-11 01:02:00,75.0,71.0,30.06,ESE,109,4.0,6.0,87,0.00,,,0.00,0.000000,,2013-05-11 11:02:00,
2013-05-11 01:11:00,75.0,71.0,30.06,ESE,109,4.0,6.0,87,0.00,,,0.00,0.000000,,2013-05-11 11:11:00,
2013-05-11 01:42:00,75.0,70.0,30.04,NE,46,4.0,5.0,85,0.00,,,-99.99,0.000000,,2013-05-11 11:42:00,
2013-05-11 01:52:00,75.0,70.0,30.04,NE,46,4.0,5.0,85,0.00,,,-99.99,0.000000,,2013-05-11 11:52:00,
2013-05-11 02:01:00,75.0,70.0,30.04,NE,46,4.0,5.0,85,0.00,,,-99.99,0.000000,,2013-05-11 12:01:00,
2013-05-11 02:11:00,75.0,70.0,30.04,NE,46,4.0,5.0,85,0.00,,,-99.99,0.000000,,2013-05-11 12:11:00,
2013-05-11 02:42:00,76.0,70.0,30.02,ENE,78,3.0,6.0,82,0.00,,,-99.99,0.000000,,2013-05-11 12:42:00,
2013-05-11 02:52:00,76.0,70.0,30.02,ENE,78,3.0,6.0,82,0.00,,,-99.99,0.000000,,2013-05-11 12:52:00,
2013-05-11 03:01:00,76.0,70.0,30.02,ENE,78,3.0,6.0,82,0.00,,,-99.99,0.000000,,2013-05-11 13:01:00,
2013-05-11 03:11:00,76.0,70.0,30.02,ENE,78,3.0,6.0,82,0.00,,,-99.99,0.000000,,2013-05-11 13:11:00,
2013-05-11 03:42:00,75.0,70.0,30.00,East,90,4.0,6.0,84,0.00,,,0.00,0.000000,,2013-05-11 13:42:00,
2013-05-11 03:52:00,75.0,70.0,30.00,East,90,4.0,6.0,84,0.00,,,0.00,0.000000,,2013-05-11 13:52:00,
2013-05-11 04:02:00,75.0,70.0,30.00,East,90,4.0,6.0,84,0.00,,,0.00,0.000000,,2013-05-11 14:02:00,
2013-05-11 04:11:00,75.0,70.0,30.00,East,90,4.0,6.0,84,0.00,,,0.00,0.000000,,2013-05-11 14:11:00,
2013-05-11 04:32:00,74.0,70.0,30.00,NE,51,5.0,7.0,88,0.01,,,0.01,0.000000,,2013-05-11 14:32:00,
2013-05-11 04:42:00,74.0,70.0,30.00,NE,51,5.0,7.0,88,0.01,,,0.01,0.000000,,2013-05-11 14:42:00,
2013-05-11 04:52:00,74.0,70.0,30.00,NE,51,5.0,7.0,88,0.01,,,0.01,0.000000,,2013-05-11 14:52:00,
2013-05-11 05:01:00,74.0,70.0,30.00,NE,51,5.0,7.0,88,0.01,,,0.01,0.000000,,2013-05-11 15:01:00,
2013-05-11 05:11:00,74.0,70.0,30.00,NE,51,5.0,7.0,88,0.01,,,0.01,0.000000,,2013-05-11 15:11:00,
2013-05-11 05:43:00,74.0,70.0,30.00,NE,51,5.0,7.0,87,0.00,,,0.01,0.000000,,2013-05-11 15:43:00,
2013-05-11 05:53:00,74.0,70.0,30.00,NE,51,5.0,7.0,87,0.00,,,0.01,0.000000,,2013-05-11 15:53:00,
2013-05-11 06:02:00,74.0,70.0,30.00,NE,51,5.0,7.0,87,0.00,,,0.01,0.000000,,2013-05-11 16:02:00,
2013-05-11 06:12:00,74.0,70.0,30.00,NE,51,5.0,7.0,87,0.00,,,0.01,0.000000,,2013-05-11 16:12:00,
2013-05-11 06:42:00,74.0,70.0,30.02,NE,56,4.0,6.0,86,0.00,,,0.01,3.000000,,2013-05-11 16:42:00,
2013-05-11 06:53:00,74.0,70.0,30.02,NE,56,4.0,6.0,86,0.00,,,0.01,3.000000,,2013-05-11 16:53:00,
2013-05-11 07:02:00,74.0,70.0,30.02,NE,56,4.0,6.0,86,0.00,,,0.01,3.000000,,2013-05-11 17:02:00,
2013-05-11 07:12:00,74.0,70.0,30.02,NE,56,4.0,6.0,86,0.00,,,0.01,3.000000,,2013-05-11 17:12:00,
2013-05-11 07:42:00,78.0,73.0,30.04,NNW,329,4.0,6.0,84,0.00,,,0.01,88.000000,,2013-05-11 17:42:00,
2013-05-11 07:52:00,78.0,73.0,30.04,NNW,329,4.0,6.0,84,0.00,,,0.01,88.000000,,2013-05-11 17:52:00,
2013-05-11 08:01:00,78.0,73.0,30.04,NNW,329,4.0,6.0,84,0.00,,,0.01,88.000000,,2013-05-11 18:01:00,
2013-05-11 08:11:00,78.0,73.0,30.04,NNW,329,4.0,6.0,84,0.00,,,0.01,88.000000,,2013-05-11 18:11:00,
2013-05-11 08:42:00,81.0,73.0,30.04,West,273,6.0,8.0,76,0.00,,,0.01,294.000000,,2013-05-11 18:42:00,
2013-05-11 08:52:00,81.0,73.0,30.04,West,273,6.0,8.0,76,0.00,,,0.01,294.000000,,2013-05-11 18:52:00,
2013-05-11 09:02:00,81.0,73.0,30.04,West,273,6.0,8.0,76,0.00,,,0.01,294.000000,,2013-05-11 19:02:00,
2013-05-11 09:11:00,81.0,73.0,30.04,West,273,6.0,8.0,76,0.00,,,0.01,294.000000,,2013-05-11 19:11:00,
2013-05-11 09:42:00,82.0,72.0,30.04,SW,233,6.0,9.0,72,0.00,,,0.01,576.000000,,2013-05-11 19:42:00,
2013-05-11 09:52:00,82.0,72.0,30.04,SW,233,6.0,9.0,72,0.00,,,0.01,576.000000,,2013-05-11 19:52:00,
2013-05-11 10:01:00,82.0,72.0,30.04,SW,233,6.0,9.0,72,0.00,,,0.01,576.000000,,2013-05-11 20:01:00,
2013-05-11 10:11:00,82.0,72.0,30.04,SW,233,6.0,9.0,72,0.00,,,0.01,576.000000,,2013-05-11 20:11:00,
2013-05-11 10:42:00,83.0,73.0,30.04,SSW,202,8.0,12.0,71,0.00,,,0.01,789.000000,,2013-05-11 20:42:00,
2013-05-11 10:52:00,83.0,73.0,30.04,SSW,202,8.0,12.0,71,0.00,,,0.01,789.000000,,2013-05-11 20:52:00,
2013-05-11 11:01:00,83.0,73.0,30.04,SSW,202,8.0,12.0,71,0.00,,,0.01,789.000000,,2013-05-11 21:01:00,
2013-05-11 11:11:00,83.0,73.0,30.04,SSW,202,8.0,12.0,71,0.00,,,0.01,789.000000,,2013-05-11 21:11:00,
2013-05-11 11:43:00,82.0,71.0,30.04,SW,228,10.0,13.0,70,0.00,,,0.01,617.000000,,2013-05-11 21:43:00,
2013-05-11 11:52:00,82.0,71.0,30.04,SW,228,10.0,13.0,70,0.00,,,0.01,617.000000,,2013-05-11 21:52:00,
2013-05-11 12:02:00,82.0,71.0,30.04,SW,228,10.0,13.0,70,0.00,,,0.01,617.000000,,2013-05-11 22:02:00,
2013-05-11 12:12:00,82.0,71.0,30.04,SW,228,10.0,13.0,70,0.00,,,0.01,617.000000,,2013-05-11 22:12:00,
2013-05-11 12:43:00,83.0,73.0,30.03,SW,230,9.0,14.0,71,0.00,,,0.01,909.000000,,2013-05-11 22:43:00,
2013-05-11 12:52:00,83.0,73.0,30.03,SW,230,9.0,14.0,71,0.00,,,0.01,909.000000,,2013-05-11 22:52:00,
2013-05-11 13:02:00,83.0,73.0,30.03,SW,230,9.0,14.0,71,0.00,,,0.01,909.000000,,2013-05-11 23:02:00,
2013-05-11 13:11:00,83.0,73.0,30.03,SW,230,9.0,14.0,71,0.00,,,0.01,909.000000,,2013-05-11 23:11:00,
2013-05-11 13:42:00,84.0,73.0,30.01,WSW,237,10.0,13.0,69,0.00,,,0.01,782.000000,,2013-05-11 23:42:00,
2013-05-11 13:52:00,84.0,73.0,30.01,WSW,237,10.0,13.0,69,0.00,,,0.01,782.000000,,2013-05-11 23:52:00,
2013-05-11 14:01:00,84.0,73.0,30.01,WSW,237,10.0,13.0,69,0.00,,,0.01,782.000000,,2013-05-12 00:01:00,
2013-05-11 14:11:00,84.0,73.0,30.01,WSW,237,10.0,13.0,69,0.00,,,0.01,782.000000,,2013-05-12 00:11:00,
2013-05-11 14:42:00,83.0,71.0,29.99,WSW,237,9.0,14.0,68,0.00,,,0.01,605.000000,,2013-05-12 00:42:00,
2013-05-11 14:52:00,83.0,71.0,29.99,WSW,237,9.0,14.0,68,0.00,,,0.01,605.000000,,2013-05-12 00:52:00,
2013-05-11 15:01:00,83.0,71.0,29.99,WSW,237,9.0,14.0,68,0.00,,,0.01,605.000000,,2013-05-12 01:01:00,
2013-05-11 15:11:00,83.0,71.0,29.99,WSW,237,9.0,14.0,68,0.00,,,0.01,605.000000,,2013-05-12 01:11:00,
2013-05-11 15:42:00,82.0,72.0,29.98,SW,234,7.0,11.0,71,0.00,,,0.01,473.000000,,2013-05-12 01:42:00,
2013-05-11 15:52:00,82.0,72.0,29.98,SW,234,7.0,11.0,71,0.00,,,0.01,473.000000,,2013-05-12 01:52:00,
2013-05-11 16:01:00,82.0,72.0,29.98,SW,234,7.0,11.0,71,0.00,,,0.01,473.000000,,2013-05-12 02:01:00,
2013-05-11 16:11:00,82.0,72.0,29.98,SW,234,7.0,11.0,71,0.00,,,0.01,473.000000,,2013-05-12 02:11:00,
2013-05-11 16:42:00,82.0,71.0,29.97,WSW,237,8.0,10.0,70,0.00,,,0.01,473.000000,,2013-05-12 02:42:00,
2013-05-11 16:52:00,82.0,71.0,29.97,WSW,237,8.0,10.0,70,0.00,,,0.01,473.000000,,2013-05-12 02:52:00,
2013-05-11 17:01:00,82.0,71.0,29.97,WSW,237,8.0,10.0,70,0.00,,,0.01,473.000000,,2013-05-12 03:01:00,
2013-05-11 17:11:00,82.0,71.0,29.97,WSW,237,8.0,10.0,70,0.00,,,0.01,473.000000,,2013-05-12 03:11:00,
2013-05-11 17:43:00,82.0,71.0,29.97,South,182,6.0,9.0,69,0.00,,,0.01,283.000000,,2013-05-12 03:43:00,
2013-05-11 17:53:00,82.0,71.0,29.97,South,182,6.0,9.0,69,0.00,,,0.01,283.000000,,2013-05-12 03:53:00,
2013-05-11 18:02:00,-999.0,-99.9,29.97,South,182,6.0,9.0,69,0.00,,,0.01,283.000000,,2013-05-12 04:02:00,
2013-05-11 18:12:00,82.0,71.0,29.97,South,182,6.0,9.0,69,0.00,,,0.01,283.000000,,2013-05-12 04:12:00,
2013-05-11 18:43:00,80.0,71.0,29.99,SSE,167,5.0,9.0,75,0.00,,,0.01,204.000000,,2013-05-12 04:43:00,
2013-05-11 18:52:00,80.0,71.0,29.99,SSE,167,5.0,9.0,75,0.00,,,0.01,204.000000,,2013-05-12 04:52:00,
2013-05-11 19:02:00,80.0,71.0,29.99,SSE,167,5.0,9.0,75,0.00,,,0.01,204.000000,,2013-05-12 05:02:00,
2013-05-11 19:11:00,80.0,71.0,29.99,SSE,167,5.0,9.0,75,0.00,,,0.01,204.000000,,2013-05-12 05:11:00,
2013-05-11 19:42:00,79.0,71.0,30.00,South,172,5.0,9.0,77,0.00,,,0.01,9.000000,,2013-05-12 05:42:00,
2013-05-11 19:52:00,79.0,71.0,30.00,South,172,5.0,9.0,77,0.00,,,0.01,9.000000,,2013-05-12 05:52:00,
2013-05-11 20:01:00,79.0,71.0,30.00,South,172,5.0,9.0,77,0.00,,,0.01,9.000000,,2013-05-12 06:01:00,
2013-05-11 20:11:00,79.0,71.0,30.00,South,172,5.0,9.0,77,0.00,,,0.01,9.000000,,2013-05-12 06:11:00,
2013-05-11 20:42:00,79.0,70.0,30.02,SW,216,6.0,9.0,75,0.00,,,0.01,0.000000,,2013-05-12 06:42:00,
2013-05-11 20:52:00,79.0,70.0,30.02,SW,216,6.0,9.0,75,0.00,,,0.01,0.000000,,2013-05-12 06:52:00,
2013-05-11 21:01:00,79.0,70.0,30.02,SW,216,6.0,9.0,75,0.00,,,0.01,0.000000,,2013-05-12 07:01:00,
2013-05-11 21:11:00,79.0,70.0,30.02,SW,216,6.0,9.0,75,0.00,,,0.01,0.000000,,2013-05-12 07:11:00,
2013-05-11 21:42:00,78.0,72.0,30.04,NE,39,2.0,7.0,82,0.00,,,0.01,0.000000,,2013-05-12 07:42:00,
2013-05-11 21:52:00,78.0,72.0,30.04,NE,39,2.0,7.0,82,0.00,,,0.01,0.000000,,2013-05-12 07:52:00,
2013-05-11 22:02:00,78.0,72.0,30.04,NE,39,2.0,7.0,82,0.00,,,0.01,0.000000,,2013-05-12 08:02:00,
2013-05-11 22:11:00,78.0,72.0,30.04,NE,39,2.0,7.0,82,0.00,,,0.01,0.000000,,2013-05-12 08:11:00,
2013-05-11 22:42:00,77.0,71.0,30.05,ESE,110,5.0,7.0,83,0.00,,,0.01,0.000000,,2013-05-12 08:42:00,
2013-05-11 22:53:00,77.0,71.0,30.05,ESE,110,5.0,7.0,83,0.00,,,0.01,0.000000,,2013-05-12 08:53:00,
2013-05-11 23:01:00,77.0,71.0,30.05,ESE,110,5.0,7.0,83,0.00,,,0.01,0.000000,,2013-05-12 09:01:00,
2013-05-11 23:11:00,77.0,71.0,30.05,ESE,110,5.0,7.0,83,0.00,,,0.01,0.000000,,2013-05-12 09:11:00,
2013-05-11 23:43:00,76.0,71.0,30.04,NE,54,4.0,6.0,85,0.00,,,0.01,0.000000,,2013-05-12 09:43:00,
2013-05-11 23:53:00,76.0,71.0,30.04,NE,54,4.0,6.0,85,0.00,,,0.01,0.000000,,2013-05-12 09:53:00,